{"data":{"norad_id":89146,"epoch":"2026-09-16T06:42:34.290720Z","epoch_age_seconds":379029,"freshness":"STALE","line1":"1 89146U          26259.27956355  .00002528  00000+0  45320-3 0  9997","line2":"2 89146  98.2593 193.7390 0088495 265.4791  93.6298 14.65179120669493","mean_motion":14.6517912,"eccentricity":0.0088495,"inclination_deg":98.2593,"raan_deg":193.739,"arg_perigee_deg":265.4791,"mean_anomaly_deg":93.6298,"bstar":0.0004532,"rev_number":66949,"period_min":98.281498851826,"perigee_km":614.07034699548,"apogee_km":738.9303736357,"semimajor_km":7054.6373603156,"source":"CELESTRAK","updated_at":"2026-09-20T09:00:32.482635Z"}}